This is the latest recevied weather packets stored in our database for station/object DK8DX-13. If no packets are shown the sender has not sent any weather packets the latest 10 day(s).
| Time | Temp. | Humidity | Pressure | Rain* | Wind** | Luminosity | Snow |
|---|---|---|---|---|---|---|---|
| 1777635162 | 23.89° C | 33% | 1027.8 hPa | 0 mm | - | - | - |
| 1777634907 | 23.89° C | 32% | 1028 hPa | 0 mm | - | - | - |
| 1777634613 | 23.89° C | 33% | 1028.1 hPa | 0 mm | - | - | - |
| 1777634343 | 23.33° C | 33% | 1028.1 hPa | 0 mm | - | - | - |
| 1777634067 | 23.89° C | 32% | 1028.1 hPa | 0 mm | - | - | - |
| 1777633812 | 24.44° C | 31% | 1028.2 hPa | 0 mm | - | - | - |
| 1777633537 | 24.44° C | 31% | 1028.2 hPa | 0 mm | - | - | - |
| 1777633277 | 24.44° C | 33% | 1028.1 hPa | 0 mm | - | - | - |
| 1777633011 | 23.89° C | 33% | 1028.3 hPa | 0 mm | - | - | - |
| 1777632757 | 23.33° C | 33% | 1028.3 hPa | 0 mm | - | - | - |
| 1777632507 | 23.33° C | 33% | 1028.4 hPa | 0 mm | - | - | - |
| 1777632217 | 22.78° C | 32% | 1028.4 hPa | 0 mm | - | - | - |
| 1777631962 | 22.78° C | 33% | 1028.6 hPa | 0 mm | - | - | - |
| 1777631703 | 22.78° C | 33% | 1028.4 hPa | 0 mm | - | - | - |
| 1777631447 | 22.78° C | 33% | 1028.4 hPa | 0 mm | - | - | - |
| 1777631192 | 22.78° C | 33% | 1028.4 hPa | 0 mm | - | - | - |
| 1777630913 | 22.78° C | 33% | 1028.6 hPa | 0 mm | - | - | - |
| 1777630662 | 22.78° C | 34% | 1028.6 hPa | 0 mm | - | - | - |
| 1777630402 | 22.22° C | 33% | 1028.7 hPa | 0 mm | - | - | - |
| 1777630132 | 22.22° C | 33% | 1028.7 hPa | 0 mm | - | - | - |
| 1777629872 | 22.22° C | 33% | 1028.8 hPa | 0 mm | - | - | - |
| 1777629617 | 22.22° C | 34% | 1028.8 hPa | 0 mm | - | - | - |
| 1777629362 | 22.22° C | 34% | 1028.8 hPa | 0 mm | - | - | - |
| 1777629107 | 21.67° C | 34% | 1028.9 hPa | 0 mm | - | - | - |
| 1777628817 | 21.67° C | 34% | 1028.9 hPa | 0 mm | - | - | - |
* Rain latest hour (hover to see other rain measurements)
** Current wind speed in m/s (hover to see current wind gust speed)